Hourly Data Report for August 29, 2020

SVARTEVAEG
NUNAVUT
Current Station Operator: ECCC - MSC

81°09'39.000" N
91°48'59.060" W
72.00 m
2403833
71872
NSG

Download Data

Hourly Data (August 2020)
Hourly Data Report for August 29, 2020
TIME Temp Definition
°C
Dew Point Definition
°C
Rel Hum Definition
%
Wind Dir Definition
10's deg

Wind Spd Definition
km/h
Visibility Definition
km
Stn Press Definition
kPa
Hmdx Definition


Wind Chill Definition


Weather Definition


00:00 -0.2 -0.2 100 34 11   100.84   -4 LegendNANA
01:00 -0.3 -0.3 100 35 14   100.82   -5 LegendNANA
02:00 -0.4 -0.4 100 33 13   100.79   -5 LegendNANA
03:00 -0.6 -0.6 100 33 13   100.76   -5 LegendNANA
04:00 -0.5 -0.5 100 34 14   100.72   -5 LegendNANA
05:00 -0.2 -0.9 95 34 15   100.69   -5 LegendNANA
06:00 -0.3 -1.1 94 34 16   100.64   -5 LegendNANA
07:00 -0.3 -0.7 97 34 15   100.61   -5 LegendNANA
08:00 0.0 -0.7 95 34 15   100.57   -4 LegendNANA
09:00 0.0 -0.8 95 34 16   100.52   -5 LegendNANA
10:00 0.4 -1.0 90 33 18   100.48     LegendNANA
11:00 0.6 -0.7 91 34 17   100.45     LegendNANA
12:00 0.4 -0.5 94 35 18   100.42     LegendNANA
13:00 0.7 -0.9 89 34 19   100.39     LegendNANA
14:00 0.6 -0.8 90 34 18   100.38     LegendNANA
15:00 0.8 -0.9 89 34 20   100.35     LegendNANA
16:00 0.7 -0.8 89 35 20   100.33     LegendNANA
17:00 0.6 -0.8 90 35 22   100.31     LegendNANA
18:00 0.6 -0.7 91 35 24   100.28     LegendNANA
19:00 0.6 -0.6 92 34 23   100.28     LegendNANA
20:00 0.6 -0.7 90 35 24   100.26     LegendNANA
21:00 0.7 -0.8 90 35 20   100.24     LegendNANA
22:00 0.7 -0.9 89 35 26   100.22     LegendNANA
23:00 0.6 -0.8 91 35 24   100.21     LegendNANA

Notes on Data Quality.

Legend

  • E = Estimated
  • M = Missing
  • NA = Not Available*
  • [empty] = Indicates an unobserved value
Date modified: